Regional Weather Roundup
Issued by NWS

Home | Current Version | Previous Version | Text Only | Print | Product List | Glossary Off
Versions: 1 2 3 4 5 6 7 8 9 10 11 12 13 14 15 16 17 18 19 20 21 22 23 24 25 26 27 28 29 30 31 32 33 34 35 36 37 38 39 40 41 42 43 44 45 46 47 48 49 50

000
ASUS43 KIND 210209
RWRIN

WEATHER ROUNDUP FOR INDIANA
NATIONAL WEATHER SERVICE INDIANAPOLIS IN
1000 PM EDT MON OCT 20 2014

NOTE: "FAIR" INDICATES FEW OR NO CLOUDS BELOW 12,000 FEET WITH NO
SIGNIFICANT WEATHER AND/OR OBSTRUCTIONS TO VISIBILITY.

* - STATION DOES NOT REPORT WEATHER SUCH AS PRECIPITATION OR FOG.

+ - STATION NOT QUALITY CONTROLLED BY THE NATIONAL WEATHER SERVICE.
    USE DATA WITH CAUTION...ESPECIALLY DEWPOINT AND RELATIVE
    HUMIDITY OBSERVATIONS.

INZ001>003-010>013-019-020-210300-
NORTHWEST INDIANA

CITY           SKY/WX    TMP DP  RH WIND       PRES   REMARKS
GARY /AIRPORT/ CLOUDY    55  48  76 N12       29.98R
KNOX *+        MOCLDY    49  45  85 N5        29.95R
LA PORTE +     CLOUDY    54  48  80 N7        29.96S
MICHIGAN CITY+ DRIZZLE   52  43  71 N15G23    29.98R
MONTICELLO +   PTCLDY    51  47  86 N6        29.94S
RENSSELAER +   CLOUDY    52  50  93 N6        29.97R
VALPARAISO     CLOUDY    52  46  80 N5        29.97R

$$

LMZ046-743>745-210300-
SOUTHERN LAKE MICHIGAN

STATION/POSITION TIME  TEMP WIND        PRES
                       AIR  DIR/SP/G
                 (UTC) (F)  (DEG/KT/KT) (MB)
MICHIGAN CITY    0200   53  350/ 22/ 26   N/A

$$

INZ004-005-014>016-021>024-210300-
NORTH CENTRAL INDIANA

CITY           SKY/WX    TMP DP  RH WIND       PRES   REMARKS
GOSHEN         CLOUDY    52  46  80 NW14      29.93R
LOGANSPORT +   MOCLDY    52  45  76 N8        29.95S
PERU/GRISSOM   MOCLDY    53  53  99 N10       29.94R
ROCHESTER +    MOCLDY    54  46  76 N12       29.95R
SOUTH BEND     CLOUDY    52  47  83 NW8       29.96R
WARSAW +       CLOUDY    52  45  76 N9        29.93R

$$

INZ006>009-017-018-025>027-210300-
NORTHEAST INDIANA

CITY           SKY/WX    TMP DP  RH WIND       PRES   REMARKS
ANGOLA *+      CLOUDY    52  46  82 NW8       29.91R
AUBURN +       CLOUDY    54  46  76 NW7       29.91R
FORT WAYNE     CLOUDY    54  47  77 NW8       29.92R
HUNTINGTON +   CLOUDY    53  48  83 NW7       29.92R

$$

INZ028-029-035-036-043>045-051>053-210300-
WEST CENTRAL INDIANA

CITY           SKY/WX    TMP DP  RH WIND       PRES   REMARKS
GREENCASTLE +  MOCLDY    57  45  62 NW3       29.94R
LAFAYETTE      CLEAR     52  46  80 N7        29.95R
TERRE HAUTE    PTCLDY    58  45  62 NW5       29.96R

$$

INZ030>032-037>040-046>048-054>057-064-065-210300-
CENTRAL INDIANA

CITY           SKY/WX    TMP DP  RH WIND       PRES   REMARKS
CP ATTERBURY + PTCLDY    59  45  58 NW8       29.92S
COLUMBUS       CLEAR     54  46  76 W7        29.92R
FRANKFORT +    DRIZZLE   55  48  78 NW12G17   29.96R
INDIANAPOLIS   PTCLDY    55  47  74 W8        29.92R
-EAGLE CREEK   MOCLDY    58  48  69 N8        29.92R
KOKOMO *+      CLOUDY    54  46  76 N12G18    29.95R
MARION +       CLOUDY    54  46  74 NW9G17    29.94R
MT COMFORT *+  MOCLDY    57  45  62 N7        29.92R
SHELBYVILLE    MOCLDY    59  47  64 NW7       29.91R
ZIONSVILLE +   MOCLDY    56  46  69 N8        29.94R

$$

INZ033-034-041-042-049-050-058-059-210300-
EAST CENTRAL INDIANA

CITY           SKY/WX    TMP DP  RH WIND       PRES   REMARKS
MUNCIE         PTCLDY    53  47  79 NW6       29.90R

$$

INZ060-061-067>069-081>083-085>088-210300-
SOUTHWEST INDIANA

CITY           SKY/WX    TMP DP  RH WIND       PRES   REMARKS
EVANSVILLE     CLEAR     62  44  51 NW6       29.97R
HUNTINGBURG *+ CLEAR     57  45  62 NW6       29.96R
WASHINGTON +   CLEAR     55  46  70 NW7       29.95R

$$

INZ062-063-066-070>080-084-089>092-210300-
SOUTH CENTRAL AND SOUTHEAST INDIANA

CITY           SKY/WX    TMP DP  RH WIND       PRES   REMARKS
BEDFORD +      PTCLDY    59  43  55 W5        29.94
BLOOMINGTON    CLEAR     58  45  62 NW5       29.94R

$$




USA.gov is the U.S. government's official web portal to all federal, state and local government web resources and services.